View from above orbital plane
|
View from above satellite
|
Ground track
|
The orbit data is extracted from the following two-line orbital elements,
1 00022U 59009A 21057.85792765 .00000315 00000-0 46452-4 0 9995
2 00022 50.2852 348.1586 0138792 150.9186 209.9583 14.95417507508432
Epoch (UTC): | 26 February 2021 20:35:24 |
Eccentricity: | 0.0138792 |
inclination: | 50.2852° |
perigee height: | 484 km |
apogee height: | 677 km |
right ascension of ascending node: | 348.1586° |
argument of perigee: | 150.9186° |
revolutions per day: | 14.95417507 |
mean anomaly at epoch: | 209.9583° |
orbit number at epoch: | 50843 |
The dashed part of the orbit path shows where the satellite is in the earth's shadow,
|
|